• In Belarus
  • List of Countries
  • For 7 days
  • Water Temperature
  • Satellite Maps
  • Weather Map
  • Weather Widgets
  • user-avatar
    Login

    Hourly Weather Trinidad

    Today, 23 November, Thursday

    Time Temperature Precipitation Wind Pressure Humidity
    00:00 +25°C° 0 mm 1 mps 744 mmHg 76%
    01:00 +26°C° 0 mm 1 mps 743 mmHg 74%
    02:00 +26°C° 0 mm 2 mps 743 mmHg 73%
    03:00 +25°C° 0.1 mm 2 mps 743 mmHg 76%
    04:00 +25°C° 0.1 mm 1 mps 743 mmHg 80%
    05:00 +24°C° 0.1 mm 1 mps 743 mmHg 83%
    06:00 +25°C° 0.1 mm 1 mps 744 mmHg 81%
    07:00 +26°C° 0.1 mm 1 mps 744 mmHg 80%
    08:00 +27°C° 0.1 mm 1 mps 745 mmHg 78%
    09:00 +28°C° 0.1 mm 1 mps 745 mmHg 73%
    10:00 +29°C° 0.1 mm 1 mps 745 mmHg 69%
    11:00 +30°C° 0.1 mm 1 mps 745 mmHg 64%
    12:00 +32°C° 0 mm 1 mps 744 mmHg 58%
    13:00 +34°C° 0 mm 1 mps 743 mmHg 51%
    14:00 +35°C° 0 mm 0 mps 742 mmHg 44%
    15:00 +36°C° 0 mm 1 mps 742 mmHg 47%
    16:00 +35°C° 0 mm 1 mps 741 mmHg 49%
    17:00 +34°C° 0 mm 1 mps 741 mmHg 51%
    18:00 +32°C° 0 mm 1 mps 741 mmHg 58%
    19:00 +30°C° 0 mm 1 mps 741 mmHg 65%
    20:00 +29°C° 0 mm 1 mps 741 mmHg 71%
    21:00 +28°C° 0 mm 1 mps 742 mmHg 74%
    22:00 +26°C° 0 mm 0 mps 742 mmHg 77%
    23:00 +25°C° 0 mm 0 mps 743 mmHg 80%

    Tomorrow, 24 November, Friday

    Time Temperature Precipitation Wind Pressure Humidity
    00:00 +25°C° 0 mm 0 mps 742 mmHg 81%
    01:00 +24°C° 0 mm 0 mps 742 mmHg 82%
    02:00 +24°C° 0 mm 0 mps 741 mmHg 84%
    03:00 +24°C° 0 mm 0 mps 741 mmHg 85%
    04:00 +24°C° 0 mm 0 mps 741 mmHg 85%
    05:00 +24°C° 0 mm 0 mps 741 mmHg 86%
    06:00 +26°C° 0 mm 0 mps 742 mmHg 79%
    07:00 +27°C° 0 mm 0 mps 743 mmHg 71%
    08:00 +31°C° 0 mm 1 mps 743 mmHg 64%
    09:00 +33°C° 0 mm 1 mps 743 mmHg 57%
    10:00 +35°C° 0 mm 1 mps 743 mmHg 50%
    11:00 +38°C° 0 mm 2 mps 743 mmHg 43%
    12:00 +38°C° 0 mm 2 mps 743 mmHg 43%
    13:00 +38°C° 0 mm 2 mps 742 mmHg 44%
    14:00 +38°C° 0 mm 2 mps 741 mmHg 44%
    15:00 +38°C° 0 mm 2 mps 740 mmHg 45%
    16:00 +37°C° 0 mm 2 mps 740 mmHg 46%
    17:00 +37°C° 0 mm 2 mps 740 mmHg 47%
    18:00 +35°C° 0 mm 2 mps 740 mmHg 53%
    19:00 +32°C° 0 mm 2 mps 740 mmHg 60%
    20:00 +31°C° 0 mm 1 mps 741 mmHg 66%
    21:00 +30°C° 0 mm 1 mps 741 mmHg 69%
    22:00 +29°C° 0 mm 1 mps 742 mmHg 71%
    23:00 +29°C° 0 mm 1 mps 742 mmHg 73%

    Day after tomorrow, 25 November, Saturday

    Time Temperature Precipitation Wind Pressure Humidity
    00:00 +28°C° 0 mm 1 mps 742 mmHg 74%
    01:00 +28°C° 0 mm 1 mps 741 mmHg 76%
    02:00 +27°C° 0 mm 1 mps 741 mmHg 77%
    03:00 +27°C° 0 mm 1 mps 741 mmHg 78%
    04:00 +27°C° 0 mm 1 mps 741 mmHg 79%
    05:00 +26°C° 0 mm 1 mps 741 mmHg 81%
    06:00 +28°C° 0 mm 1 mps 741 mmHg 75%
    07:00 +29°C° 0 mm 1 mps 742 mmHg 70%
    08:00 +31°C° 0 mm 1 mps 743 mmHg 65%
    09:00 +34°C° 0 mm 2 mps 743 mmHg 58%
    10:00 +36°C° 0 mm 2 mps 743 mmHg 51%
    11:00 +38°C° 0 mm 2 mps 743 mmHg 44%
    12:00 +39°C° 0 mm 2 mps 742 mmHg 41%
    13:00 +39°C° 0 mm 2 mps 741 mmHg 39%
    14:00 +40°C° 0 mm 3 mps 740 mmHg 36%
    15:00 +40°C° 0 mm 2 mps 740 mmHg 38%
    16:00 +39°C° 0 mm 2 mps 739 mmHg 40%
    17:00 +38°C° 0 mm 2 mps 739 mmHg 42%
    18:00 +36°C° 0 mm 2 mps 739 mmHg 47%
    19:00 +34°C° 0 mm 2 mps 740 mmHg 53%
    20:00 +32°C° 0 mm 1 mps 740 mmHg 58%
    21:00 +31°C° 0 mm 1 mps 741 mmHg 60%
    22:00 +30°C° 0 mm 1 mps 741 mmHg 62%
    23:00 +29°C° 0 mm 1 mps 741 mmHg 63%

    26 November, Sunday

    Time Temperature Precipitation Wind Pressure Humidity
    00:00 +29°C° 0 mm 1 mps 741 mmHg 65%
    01:00 +29°C° 0 mm 1 mps 741 mmHg 67%
    02:00 +28°C° 0 mm 1 mps 740 mmHg 68%
    03:00 +28°C° 0.4 mm 1 mps 741 mmHg 74%
    04:00 +27°C° 0.4 mm 1 mps 741 mmHg 79%
    05:00 +26°C° 0.4 mm 1 mps 741 mmHg 84%
    06:00 +27°C° 0.1 mm 1 mps 742 mmHg 82%
    07:00 +28°C° 0.1 mm 1 mps 743 mmHg 80%
    08:00 +29°C° 0.1 mm 1 mps 743 mmHg 78%
    09:00 +30°C° 1.6 mm 1 mps 743 mmHg 77%
    10:00 +31°C° 1.6 mm 2 mps 743 mmHg 76%
    11:00 +32°C° 1.6 mm 2 mps 743 mmHg 75%
    12:00 +32°C° 2 mm 2 mps 742 mmHg 74%
    13:00 +32°C° 2 mm 2 mps 741 mmHg 73%
    14:00 +32°C° 2 mm 2 mps 741 mmHg 72%
    15:00 +32°C° 0.1 mm 2 mps 740 mmHg 69%
    16:00 +32°C° 0.1 mm 2 mps 740 mmHg 67%
    17:00 +32°C° 0.1 mm 2 mps 740 mmHg 64%
    18:00 +31°C° 0 mm 2 mps 740 mmHg 68%
    19:00 +30°C° 0 mm 2 mps 741 mmHg 72%
    20:00 +29°C° 0 mm 2 mps 741 mmHg 77%
    21:00 +28°C° 0 mm 2 mps 741 mmHg 79%
    22:00 +28°C° 0 mm 2 mps 742 mmHg 81%
    23:00 +27°C° 0 mm 1 mps 742 mmHg 84%

    27 November, Monday

    Time Temperature Precipitation Wind Pressure Humidity
    00:00 +27°C° 0 mm 2 mps 741 mmHg 83%
    01:00 +27°C° 0 mm 2 mps 740 mmHg 83%
    02:00 +27°C° 0 mm 2 mps 740 mmHg 83%
    03:00 +27°C° 0 mm 2 mps 740 mmHg 84%
    04:00 +27°C° 0 mm 2 mps 740 mmHg 85%
    05:00 +26°C° 0 mm 2 mps 740 mmHg 86%
    06:00 +27°C° 0 mm 2 mps 741 mmHg 82%
    07:00 +28°C° 0 mm 2 mps 741 mmHg 77%
    08:00 +29°C° 0 mm 3 mps 742 mmHg 73%
    09:00 +31°C° 0 mm 3 mps 742 mmHg 65%
    10:00 +34°C° 0 mm 3 mps 742 mmHg 57%
    11:00 +36°C° 0 mm 3 mps 742 mmHg 48%
    12:00 +37°C° 0 mm 3 mps 741 mmHg 45%
    13:00 +38°C° 0 mm 4 mps 741 mmHg 42%
    14:00 +40°C° 0 mm 4 mps 740 mmHg 39%
    15:00 +38°C° 0 mm 4 mps 740 mmHg 41%
    16:00 +38°C° 0 mm 3 mps 739 mmHg 42%
    17:00 +37°C° 0 mm 3 mps 739 mmHg 44%
    18:00 +35°C° 0 mm 3 mps 739 mmHg 50%
    19:00 +34°C° 0 mm 2 mps 740 mmHg 56%
    20:00 +31°C° 0 mm 2 mps 740 mmHg 62%
    21:00 +30°C° 0 mm 2 mps 741 mmHg 64%
    22:00 +29°C° 0 mm 1 mps 741 mmHg 67%
    23:00 +29°C° 0 mm 1 mps 742 mmHg 69%

    28 November, Tuesday

    Time Temperature Precipitation Wind Pressure Humidity
    00:00 +28°C° 0 mm 1 mps 741 mmHg 70%
    01:00 +28°C° 0 mm 1 mps 741 mmHg 71%
    02:00 +27°C° 0 mm 1 mps 741 mmHg 72%
    03:00 +27°C° 0 mm 1 mps 741 mmHg 73%
    04:00 +27°C° 0 mm 1 mps 741 mmHg 74%
    05:00 +27°C° 0 mm 1 mps 742 mmHg 75%
    06:00 +28°C° 0 mm 1 mps 743 mmHg 72%
    07:00 +27°C° 0 mm 0 mps 743 mmHg 68%
    08:00 +28°C° 0 mm 0 mps 744 mmHg 65%
    09:00 +29°C° 0.1 mm 0 mps 745 mmHg 63%
    10:00 +30°C° 0.1 mm 0 mps 745 mmHg 60%
    11:00 +33°C° 0.1 mm 1 mps 745 mmHg 58%
    12:00 +33°C° 0.7 mm 1 mps 745 mmHg 60%
    13:00 +32°C° 0.7 mm 2 mps 744 mmHg 62%
    14:00 +33°C° 0.7 mm 3 mps 743 mmHg 63%
    15:00 +31°C° 1.4 mm 2 mps 743 mmHg 70%
    16:00 +29°C° 1.4 mm 2 mps 743 mmHg 77%
    17:00 +28°C° 1.4 mm 1 mps 742 mmHg 84%
    18:00 +27°C° 0 mm 1 mps 743 mmHg 85%
    19:00 +27°C° 0 mm 1 mps 743 mmHg 86%
    20:00 +26°C° 0 mm 1 mps 743 mmHg 87%
    21:00 +26°C° 0 mm 1 mps 744 mmHg 87%
    22:00 +26°C° 0 mm 1 mps 744 mmHg 88%
    23:00 +25°C° 0 mm 1 mps 744 mmHg 89%
    Show more